Погода в Карачихе

Россия / Ярославская область     57°38′39″N   39°46′09″E
темп.,
°C
ветер,
м/с
пор.,
м/с
влажн.,
%
обл.,
%
осадки,
мм/ч
давл.,
гПа
погр.,
м
14 апреля, ср
ср1400:00+11ю376960 0.0 1023100
03:00+9ю413735 0.0 1022236
06:00+9ю412725 0.0 1021228
09:00+14ю59565 0.0 1021344
12:00+18ю694723 0.0 1020797
15:00+20ю793798 0.0 10181678
18:00+17ю4848100 0.0 1018186
21:00+13ю3660100 0.0 101890
15 апреля, чт
чт1500:00+10ююз337011 0.0 101835
03:00+9зюз127687 0.0 101810
06:00+8с2391100 0.0 101863
09:00+10ссв5789100 0.0 1020458
12:00+8ссв6884100 0.1 1021600
15:00+6св71183100 0.1 1022630
18:00+5св71486100 0.3 1024646
21:00+5св81581100 0.6 1024635
16 апреля, пт
пт1600:00+5всв71480100 0.0 1025637
03:00+4всв61380100 0.0 1025547
06:00+3всв61373100 0.0 1026505
09:00+5всв71162100 0.0 1027582
12:00+9всв794888 0.0 1027853
15:00+10всв7941100 0.0 10271022
18:00+9всв6104687 0.0 1027684
21:00+6св5135989 0.0 1028326
17 апреля, сб
сб1700:00+4всв51266100 0.0 1029296
03:00+3св5127232 0.0 1030245
06:00+2всв4117445 0.0 1031245
09:00+7всв695413 0.0 1031538
12:00+10всв56393 0.0 10321200
15:00+12св56365 0.0 10311470
18:00+11св47475 0.0 1031578
21:00+7св37675 0.0 1032120
18 апреля, вс
вс1800:00+5св410744 0.0 1033191
03:00+3всв36785 0.0 103499
06:00+2всв36806 0.0 1035115
09:00+7в35595 0.0 1035506
12:00+10в34457 0.0 10341259
15:00+11св45425 0.0 10351628
18:00+11в344759 0.0 1033476
21:00+7в336386 0.0 103430